Погода в Бергине

Россия / Республика Калмыкия     46°50′40″N   46°56′12″E
темп.,
°C
ветер,
м/с
пор.,
м/с
влажн.,
%
обл.,
%
осадки,
мм/ч
давл.,
гПа
погр.,
м
17 июня, чт
чт1700:00+27всв474416 0.0 1009123
03:00+26всв713480 0.0 1009334
06:00+27всв915465 0.0 1009590
09:00+33в10123015 0.0 10081116
12:00+38вюв910163 0.0 10082584
15:00+38ююв91014100 0.0 10082347
18:00+35ююв7921100 0.0 1009788
21:00+31юв51025100 0.0 1010208
18 июня, пт
пт1800:00+27юв3632100 0.0 1011120
03:00+27в4531100 0.0 101273
06:00+27в585287 0.0 1014645
09:00+30в784283 0.0 10141078
12:00+32всв883668 0.3 10151726
15:00+34всв992714 0.5 10142124
18:00+32всв10112341 0.3 10151479
21:00+28всв815230 0.3 1017555
19 июня, сб
сб1900:00+26всв814260 0.0 1018516
03:00+24всв814320 0.0 1019485
06:00+23всв913390 0.0 1021584
09:00+27всв910292 0.0 10211031
12:00+30всв910221 0.0 10201425
15:00+32всв910170 0.0 10191556
18:00+31всв810170 0.0 10181366
21:00+27всв613220 0.0 1018343
20 июня, вс
вс2000:00+25всв614262 0.0 1018323
03:00+23всв713325 0.0 1018271
06:00+25в814390 0.0 1018469
09:00+32вюв1011274 0.0 10181059
12:00+35юв910205 0.0 10182015
15:00+35вюв99175 0.0 10172137
18:00+32вюв99185 0.0 10171670
21:00+27вюв512235 0.0 1018347
21 июня, пн
пн2100:00+24в513245 0.0 1017258
03:00+23в511250 0.0 1017178
06:00+25в713260 0.0 1017383
09:00+32вюв910180 0.0 10171460
12:00+36вюв89130 0.0 10162487
15:00+36юв88120 0.0 10152664
18:00+34юв77140 0.0 10152176
21:00+29юв46210 0.0 101688